Вернуться в каталог

STARLINK-35394

АктивенСвязьVLEO
NORAD 66023·PAYLOAD·🇺🇸 United States

Запущен Oct 16, 2025 с Cape Canaveral Space Force Station

Loading…

Ближайшие Пролёты (ближайшие 24 часа)

TLE

СвежийSource: CelesTrak SupGP

Эпоха: Sep 14, 2026, 14:38 UTC

1 66023C 25232U   26257.61020833  .00035899  00000+0  10611-2 0  2577
2 66023  53.1570 304.9799 0001422  80.9758 151.5301 15.34357807    17

Отслеживайте STARLINK-35394 в реальном времени с AllMySat

Download on the App Store